User: anonymous   Login
Location: Prairie State College
(41.5244°N, 87.6382°W)
Time: 18:12:52
(UTC-06:00)
Language:

Cosmos 1943 - Orbit

View from above orbital plane
View from above orbital plane
View from above satellite
View from above satellite

Ground track
Ground track

The orbit data is extracted from the following two-line orbital elements,

1 19119U 88039A   17052.94672042 -.00000237 +00000-0 -97391-4 0  9995
2 19119 071.0051 343.7873 0013624 238.5462 188.7321 14.15081193485525
Epoch (UTC): 21 February 2017 22:43:16
Eccentricity: 0.0013624
inclination: 71.0051°
perigee height: 832 km
apogee height: 852 km
right ascension of ascending node: 343.7873°
argument of perigee: 238.5462°
revolutions per day: 14.15081193
mean anomaly at epoch: 188.7321°
orbit number at epoch: 48552

The dashed part of the orbit path shows where the satellite is in the earth's shadow,  

DLR